STARLINK-36387, 67610

Orbit data source: Space-Track

STARLINK-36387, 67610 is a payload satellite owned by SpaceX/Seattle (US) in SSO that was launched on Thu, 29 Jan 2026 UTC via an FALCON 9 launch vehicle from the Air Force Western Test Range (AFWTR). Payload-class satellites include a variety of spacecraft equipped with specific instruments for various scientific and technological missions. These include communications satellites like Starlink; space stations such as the ISS; scientific satellites like the Hubble; Earth observation satellites from companies like Planet Labs, Umbra, and HawkEye 360; GPS; miniature CubeSats for education and research; and military/defense satellites.

Not visible in the next 10 days
Identifier
67610, 2026-018X
Orbit
SSO
Country
Flag of USUS
Related business
Manufacturer
SpaceX/Seattle
Mission
Operational Commercial Communications
Bus & Motor
STARLINK V2MO, Unknown motor
Mass
575 kg wet, ~530 kg dry
Launch date (UTC)
2026-01-29 (5 months ago)
Launch vehicle
FALCON 9
Launch site
Air Force Western Test Range (AFWTR)
Object type
Payload
Rocket body
Debris
Shape & HBR
Box + 2 Pan, 17.7 m
Radar Cross Section
36.964 m², Large (>1 m²)

Expand to show TLE details & history
Last TLE update: 1 day ago

TLE from 1 day ago
0 STARLINK-36387
1 67610U 26018X   26170.70096355  .00230968  00000-0  15050-2 0  9999
2 67610  97.2835 241.6654 0001505  57.7666 302.3745 15.75233874 23376
Epoch: 2026-06-19T16:49Z
TLE epoch observation values (Epoch: 2026-06-19T16:49:23.250Z)
Latitude
-0.00003°
Longitude
81.39236°
Altitude
346.592 km
Speed
7.701 km/s
True Right ascension
16h 06m 39s
True Declination
0° 00' 00"
Sunlit
Object was in full shadow at epoch
Visualization orbit readout
Latitude
Unknown
Longitude
Unknown
Altitude
Unknown
Speed
Unknown
Apparent Right ascension
Unknown
Apparent Declination
Unknown
Sunlit
N/A
Visualization observer readout
Local Sidereal Time
07:17:12
Azimuth
Unknown
Elevation
Unknown
Doppler factor
Unknown
Orbital elements
Apogee altitude
341.864 km
Perigee altitude
339.842 km
Semi-major axis
6,718.99 km
Eccentricity
0.00015
Inclination
97.2835°
RAAN
241.6654°
Arg. of periapsis
57.7666°
True anomaly
302.35993°
Mean anomaly
302.3745°
Eccentric anomaly
302.36722°
Mean motion
3.94083 °/min
Orbital period
91.35 mins
BSTAR
0.001505
Loading maneuver chart data...
Computing Atmospheric mass density...
Loading historical data...
Loading historical data...
Loading historical data...
Loading historical data...
Loading historical data...
Loading historical data...
Loading historical data...

Documentation

Showing up to 5 results
|